Regional Weather Roundup
Issued by NWS

Home | Current Version | Previous Version | Graphics & Text | Print | Product List | Glossary On
Versions: 1 2 3 4 5 6 7 8 9 10 11 12 13 14 15 16 17 18 19 20 21 22 23 24 25 26 27 28 29 30 31 32 33 34 35 36 37 38 39 40 41 42 43 44 45 46 47 48 49 50
000
ASUS43 KFSD 202010
RWRSD

WEATHER ROUNDUP FOR SOUTH DAKOTA
NATIONAL WEATHER SERVICE SIOUX FALLS SD
300 PM CDT SUN AUG 20 2017

NOTE: "FAIR" INDICATES FEW OR NO CLOUDS BELOW 12,000 FEET WITH NO
SIGNIFICANT WEATHER AND/OR OBSTRUCTIONS TO VISIBILITY.


SDZ001>005-009-010-012>017-202100-
NORTHWEST AND NORTH CENTRAL SOUTH DAKOTA

CITY           SKY/WX    TMP DP  RH WIND       PRES   REMARKS
BUFFALO          N/A     82  40  22 SE10G17   29.98F
FAITH            N/A     76  44  32 E13       30.05F
MOBRIDGE       CLOUDY    75  51  43 E12       30.02F
$$

SDZ012>016-024>037-041>051-057-063-072>074-202100-
SOUTHWEST AND SOUTH CENTRAL SOUTH DAKOTA

CITY           SKY/WX    TMP DP  RH WIND       PRES   REMARKS
RAPID CTY ARPT SUNNY     77  49  37 CALM      30.06F
PIERRE         SUNNY     79  54  41 NE13      30.02F
CUSTER         SUNNY     71  47  42 SE10G20   30.16F
ELLSWORTH AFB  SUNNY     77  49  37 CALM      30.05F
PHILIP         SUNNY     83  52  34 E12       30.02F
PINE RIDGE     SUNNY     84  53  34 E15G21    30.04F
SPEARFISH      FAIR      79  46  31 E26       30.03F
WINNER         FAIR      86  55  34 NE15      30.00S
$$

SDZ004>011-016>023-039-040-202100-
NORTHEAST SOUTH DAKOTA

CITY           SKY/WX    TMP DP  RH WIND       PRES   REMARKS
ABERDEEN       CLOUDY    71  53  52 VRB6      30.04R
WATERTOWN      CLOUDY    68  58  70 NE9       30.02S
BROOKINGS      MOSUNNY   75  60  59 NE8       30.00S
SISSETON         N/A     73  57  57 N3        30.01S
$$

SDZ017-020-022-023-036>040-048>070-202100-
SOUTHEAST SOUTH DAKOTA

CITY           SKY/WX    TMP DP  RH WIND       PRES   REMARKS
SIOUX FALLS    MOSUNNY   84  72  67 NE9       29.96F
HURON          SUNNY     79  59  50 N15       29.99S
CHAMBERLAIN    SUNNY     83  56  39 N15       30.00S
MITCHELL       MOSUNNY   83  67  58 E12       29.95F
YANKTON        SUNNY     84  66  54 SE7       29.94S
$$

ABBREVIATIONS USED IN REMARKS
   TC - TEMPERATURE IN CELSIUS
  WCI - WIND CHILL INDEX
   HX - HEAT INDEX
  VSB - VISIBILITY




USA.gov is the U.S. government's official web portal to all federal, state and local government web resources and services.